HST 1 20580U 90037B 26162.21026604 .00005021 00000+0 15696-3 0 9999 2 20580 28.4707 121.4212 0001970 81.6673 278.4146 15.30680019787654 POLAR 1 23802U 96013A 26161.87519765 .00000124 00000+0 00000+0 0 9993 2 23802 79.8459 227.1261 6464299 209.2978 89.4613 1.29846139144774 SWAS 1 25560U 98071A 26162.25098332 .00002895 00000+0 18614-3 0 9998 2 25560 69.8964 242.8269 0008894 265.3859 94.6290 15.09590398496370 CXO 1 25867U 99040B 26164.08641897 .00000611 00000+0 00000+0 0 9998 2 25867 56.1211 116.7320 7849026 310.2825 0.0985 0.37806491 17304 XMM-NEWTON 1 25989U 99066A 26163.36279180 .00000079 00000+0 00000+0 0 9991 2 25989 64.5165 283.0486 4676939 65.0051 0.0920 0.50123487 22986 TERRA 1 25994U 99068A 26162.26133616 .00000307 00000+0 71519-4 0 9992 2 25994 97.9458 212.0424 0001137 214.4897 187.4080 14.61098276408740 CLUSTER II-FM7 (SAMBA) 1 26410U 00041A 26163.67757317 .00005012 00000+0 00000+0 0 9995 2 26410 149.9129 50.0471 9050232 267.1318 359.9673 0.44876884 20290 CLUSTER II-FM8 (TANGO) 1 26464U 00045B 26161.68499368 .00004607 00000+0 00000+0 0 9995 2 26464 150.1514 50.7508 9053479 267.6710 3.1469 0.44410860 20284 ODIN 1 26702U 01007A 26162.05789415 .00145592 00000+0 10197-2 0 9996 2 26702 97.3849 202.6148 0006590 150.7020 209.4615 15.73770209388431 TIMED 1 26998U 01055B 26161.98670908 .00001073 00000+0 10100-3 0 9993 2 26998 74.0676 247.5027 0000774 346.7034 13.4130 14.95281516329893 CORIOLIS 1 27640U 03001A 26161.99625314 .00000087 00000+0 61481-4 0 9996 2 27640 98.7125 168.9756 0013076 227.6569 132.3501 14.19943123213344 SORCE 1 27651U 03004A 26162.09582410 .00002520 00000+0 19115-3 0 9992 2 27651 39.9914 296.4311 0017346 3.9519 356.1409 15.03680854270986 MOST 1 27843U 03031D 26162.29795680 .00000057 00000+0 46048-4 0 9991 2 27843 98.7044 170.1061 0008671 269.6763 90.3420 14.21321284189874 SCISAT 1 1 27858U 03036A 26162.21548699 .00000427 00000+0 59277-4 0 9999 2 27858 73.9285 183.2080 0008662 252.5064 107.5166 14.81441675230567 SWIFT 1 28485U 04047A 26160.80720722 .00060185 00000+0 51552-3 0 9995 2 28485 20.5518 241.7982 0002239 174.3628 185.6843 15.67639100185704 HINODE (SOLAR-B) 1 29479U 06041A 26162.25788884 .00000584 00000+0 10874-3 0 9998 2 29479 98.0549 178.4978 0016237 310.1573 49.8210 14.68614746 54001 SHIJIAN-6 02A (SJ-6 02A) 1 29505U 06046A 26162.22067464 .00003972 00000+0 20528-3 0 9995 2 29505 97.6369 203.2424 0004115 138.3592 221.7954 15.16869810 71364 SHIJIAN-6 02B (SJ-6 02B) 1 29506U 06046B 26162.28142762 .00001192 00000+0 97021-4 0 9992 2 29506 97.7166 191.3767 0014993 77.5939 282.6962 15.01361907 69856 FGRST (GLAST) 1 33053U 08029A 26161.94261802 .00002996 00000+0 10689-3 0 9993 2 33053 25.5818 247.8418 0007633 251.4544 108.5165 15.23918797994889 SDO 1 36395U 10005A 26161.40705103 -.00000068 00000+0 00000+0 0 9991 2 36395 34.6369 86.4462 0001595 53.5104 163.3265 1.00270525 59997 CRYOSAT 2 1 36508U 10013A 26162.29220819 .00000113 00000+0 27296-4 0 9991 2 36508 92.0349 275.8688 0002201 87.1831 272.9628 14.51897194857227 X-SAT 1 37389U 11015C 26162.25806943 .00000339 00000+0 16164-3 0 9997 2 37389 98.3507 139.5641 0014333 5.8719 354.2627 14.25205595786836 GCOM-W1 (SHIZUKU) 1 38337U 12025A 26162.11859333 .00000378 00000+0 93963-4 0 9995 2 38337 98.2021 102.7662 0001849 79.4102 296.3910 14.57118937748158 NUSTAR 1 38358U 12031A 26162.33335648 .00017607 00000+0 10326-2 0 9990 2 38358 6.0271 78.0321 0007206 11.3835 234.4658 15.08742205 1302 NEOSSAT 1 39089U 13009D 26162.21647114 .00000124 00000+0 57638-4 0 9994 2 39089 98.4175 342.3912 0009785 263.7890 96.2182 14.35824272695885 BRITE-AUSTRIA 1 39091U 13009F 26162.07876360 .00000146 00000+0 64242-4 0 9991 2 39091 98.3993 341.6658 0008983 257.1343 102.8840 14.36539653696178 IRIS 1 39197U 13033A 26162.10417242 .00000852 00000+0 10380-3 0 9996 2 39197 97.9334 1.4003 0023992 342.3201 17.7177 14.85872946699473 HISAKI (SPRINT-A) 1 39253U 13049A 26162.23666596 .00000128 00000+0 86305-4 0 9995 2 39253 29.7197 250.2666 0136892 328.6235 30.6229 13.55544055630619 CASSIOPE 1 39265U 13055A 26162.19091977 .00041596 -57920-6 45687-3 0 9997 2 39265 80.9146 73.9988 0294872 82.5498 280.9131 15.24631413666751 STSAT-3 1 39422U 13066G 26162.25315125 .00002799 00000+0 21380-3 0 9990 2 39422 97.6215 132.2370 0011082 60.7673 299.4659 15.02722646683311 SWARM B 1 39451U 13067A 26162.24174911 .00002876 00000+0 10244-3 0 9991 2 39451 87.7437 344.1239 0003376 88.5147 271.6489 15.28514499682335 SWARM A 1 39452U 13067B 26162.21889773 .00009169 00000+0 15824-3 0 9999 2 39452 87.3335 58.4583 0002983 93.6497 266.5105 15.50832019705323 SWARM C 1 39453U 13067C 26162.21877989 .00009212 00000+0 15897-3 0 9995 2 39453 87.3334 57.0397 0002974 93.5171 266.6430 15.50834474705283 BRITE-CA1 (TORONTO) 1 40020U 14033L 26162.19454943 .00000573 00000+0 94016-4 0 9991 2 40020 97.9731 291.2332 0077355 296.5409 62.7884 14.72668302641339 OCO 2 1 40059U 14035A 26162.18122037 .00000323 00000+0 81773-4 0 9999 2 40059 98.2018 103.5658 0001490 86.2831 273.8537 14.57106256635172 BRITE-PL2 (HEWELIUSZ) 1 40119U 14049B 26162.21384170 .00001207 00000+0 11691-3 0 9996 2 40119 97.9092 274.1682 0015132 126.1133 234.1491 14.94575015640557 MMS 1 1 40482U 15011A 26162.33335648 -.00000039 00000+0 00000+0 0 9999 2 40482 72.0789 348.8750 8320531 167.3638 61.1445 0.28358355 1397 MMS 2 1 40483U 15011B 26162.33335648 -.00000039 00000+0 00000+0 0 9990 2 40483 72.0790 348.8771 8321315 167.3695 61.1330 0.28358380 1398 MMS 3 1 40484U 15011C 26162.33335648 -.00000039 00000+0 00000+0 0 9991 2 40484 72.0822 348.8817 8320499 167.3640 61.1290 0.28358325 1392 MMS 4 1 40485U 15011D 26162.33335648 -.00000039 00000+0 00000+0 0 9992 2 40485 72.0790 348.8769 8320077 167.3703 61.1231 0.28359869 1394 ASTROSAT 1 40930U 15052A 26162.23865531 .00001431 00000+0 92453-4 0 9994 2 40930 5.9953 198.1766 0008434 308.2064 51.7305 14.82497266578942 DAMPE 1 41173U 15078A 26162.28525852 .00001146 00000+0 41078-4 0 9996 2 41173 97.4562 167.7233 0013784 95.5373 264.7441 15.30769918583648 PISAT 1 41784U 16059B 26162.01358544 .00000783 00000+0 14095-3 0 9991 2 41784 97.8178 162.7317 0027925 223.1111 136.7909 14.68973040518831 HXMT (HUIYAN) 1 42758U 17034A 26162.27999470 .00003730 00000+0 18740-3 0 9990 2 42758 43.0133 215.9336 0030207 108.2562 252.1577 15.18438770496762 FLYING LAPTOP 1 42831U 17042G 26162.31957682 .00003348 00000+0 26502-3 0 9995 2 42831 97.4660 318.0797 0019275 140.7203 219.5424 15.01107587485579 ZHANGHENG 1-01 (CSES-1) 1 43194U 18015C 26162.28299753 .00005870 00000+0 26911-3 0 9999 2 43194 97.6862 327.8243 0017078 288.6366 71.3014 15.20734533463745 SALSAT 1 46495U 20068K 26162.25849645 .00006276 00000+0 22076-3 0 9994 2 46495 97.8851 164.9624 0008555 332.6699 27.4089 15.29713226314456 IXPE 1 49954U 21121A 26162.33335648 .00010672 00000+0 57853-3 0 9996 2 49954 0.2321 1.7465 0007454 347.7965 92.1486 15.10195380 5597 SMILE 1 69123U 26109A 26144.65318427 -.00001976 00000+0 -42379-3 0 9994 2 69123 70.0007 229.2745 0009123 259.5159 100.4951 14.57062785 802